Temp
-8 -8 -8 -8 -9 -9 -9 -9 -11 -11 -11 -7 -6 -5 -6 -6 -5 -6 -6 -5 -5 -4 -4 -3 -2 -1 -0 1 3 4 5 5 7 9 10 11 11 11
-8 -8 -8 -8 -9 -9 -9 -9 -9 -10 -12 -8 -6 -6 -5 -5 -5 -5 -5 -5 -5 -5 -5 -5 -3 -2 -2 -1 1 2 3 4 4 6 8 10 11 11
-9 -9 -8 -9 -9 -8 -9 -9 -9 -9 -10 -8 -8 -7 -6 -6 -6 -6 -6 -6 -5 -5 -5 -5 -5 -4 -2 -2 -0 1 2 3 4 5 7 8 10 11
-9 -9 -9 -9 -9 -9 -9 -8 -9 -8 -9 -9 -7 -7 -6 -6 -6 -6 -6 -7 -7 -6 -6 -6 -5 -5 -4 -3 -3 -1 0 1 2 4 4 6 9 11
-9 -10 -9 -10 -9 -9 -9 -9 -8 -8 -8 -8 -7 -8 -7 -6 -6 -6 -6 -6 -7 -7 -7 -7 -6 -6 -7 -5 -5 -5 -4 -2 -0 0 4 4 6 9
-10 -10 -10 -9 -9 -9 -9 -9 -8 -8 -8 -8 -7 -7 -7 -6 -7 -7 -6 -7 -7 -7 -7 -8 -7 -7 -6 -6 -5 -5 -4 -3 -2 -0 2 4 4 6
-10 -10 -10 -9 -9 -9 -9 -9 -8 -8 -8 -8 -8 -7 -8 -7 -7 -7 -8 -7 -7 -7 -8 -7 -7 -7 -7 -7 -6 -5 -4 -4 -3 -2 1 3 4 5
-10 -10 -10 -10 -9 -9 -9 -8 -8 -8 -7 -7 -7 -8 -7 -7 -7 -7 -8 -9 -9 -8 -9 -8 -8 -8 -7 -7 -7 -6 -5 -5 -5 -4 -1 -1 3 4
-10 -10 -10 -10 -9 -9 -9 -9 -9 -9 -9 -8 -8 -8 -7 -7 -7 -8 -9 -8 -8 -7 -9 -9 -8 -8 -7 -7 -6 -6 -6 -5 -5 -4 -3 -1 0 4
-10 -10 -10 -10 -9 -9 -9 -9 -9 -9 -9 -8 -8 -8 -7 -7 -7 -8 -8 -9 -9 -8 -9 -10 -8 -7 -7 -7 -6 -6 -5 -4 -4 -3 -2 -1 -0 2
-11 -10 -10 -10 -10 -10 -9 -9 -9 -9 -9 -9 -9 -8 -8 -8 -7 -7 -7 -8 -9 -8 -8 -9 -7 -7 -7 -8 -7 -5 -5 -5 -4 -3 -2 -1 -0 -0
-11 -11 -10 -10 -10 -10 -9 -10 -9 -9 -9 -9 -8 -8 -8 -8 -8 -8 -7 -7 -8 -8 -8 -9 -8 -8 -9 -7 -7 -6 -6 -4 -4 -3 -3 -3 -1 -1
-11 -10 -10 -11 -10 -10 -9 -9 -9 -10 -10 -9 -9 -9 -8 -8 -8 -8 -7 -7 -7 -7 -7 -8 -8 -8 -9 -9 -8 -7 -7 -5 -4 -4 -3 -2 -1 -0
-11 -11 -11 -11 -10 -10 -10 -10 -11 -10 -10 -10 -10 -9 -9 -9 -9 -8 -8 -8 -8 -8 -7 -8 -8 -9 -9 -9 -9 -7 -7 -6 -6 -5 -4 -2 -1 -1
-11 -11 -10 -11 -11 -12 -11 -11 -11 -11 -11 -11 -11 -11 -10 -10 -9 -9 -8 -8 -8 -7 -7 -7 -8 -8 -8 -8 -8 -7 -7 -6 -6 -5 -4 -4 -2 -1
-11 -11 -11 -12 -12 -12 -12 -12 -12 -12 -12 -12 -12 -11 -11 -10 -10 -10 -10 -9 -9 -8 -6 -7 -8 -8 -8 -7 -7 -7 -7 -7 -6 -6 -5 -5 -3 -2
-11 -12 -12 -13 -13 -13 -12 -12 -12 -12 -12 -12 -12 -11 -11 -11 -11 -10 -10 -10 -9 -8 -8 -7 -7 -7 -7 -7 -7 -7 -6 -6 -6 -5 -4 -4 -3 -2
-13 -13 -13 -13 -13 -13 -13 -13 -12 -12 -12 -12 -12 -12 -11 -11 -11 -10 -11 -10 -10 -9 -9 -8 -7 -7 -7 -7 -6 -6 -6 -6 -5 -5 -5 -6 -4 -2
-13 -13 -14 -14 -14 -14 -13 -13 -13 -12 -12 -12 -12 -11 -11 -11 -11 -10 -10 -10 -10 -10 -9 -9 -8 -8 -7 -7 -6 -6 -6 -6 -6 -6 -6 -6 -6 -4
-13 -13 -14 -14 -14 -14 -13 -13 -13 -12 -12 -12 -11 -11 -11 -11 -11 -10 -10 -10 -10 -10 -10 -10 -9 -9 -9 -8 -8 -7 -7 -7 -7 -7 -6 -6 -6 -5
-12 -13 -13 -13 -13 -13 -13 -13 -13 -13 -12 -12 -12 -11 -11 -11 -11 -10 -10 -10 -10 -10 -10 -10 -10 -10 -10 -10 -9 -9 -7 -7 -8 -8 -7 -7 -6 -6
-12 -12 -12 -13 -13 -13 -13 -13 -13 -13 -12 -12 -11 -11 -11 -11 -10 -10 -10 -10 -10 -10 -10 -10 -10 -10 -10 -10 -10 -10 -9 -8 -7 -8 -8 -7 -7 -6
-12 -12 -12 -12 -12 -13 -13 -13 -13 -13 -12 -12 -11 -11 -11 -11 -10 -10 -10 -10 -10 -10 -10 -10 -10 -10 -11 -11 -11 -10 -11 -10 -8 -7 -6 -6 -6 -6
Height
1476 1476 1476 1475 1475 1476 1475 1475 1475 1472 1467 1465 1463 1463 1462 1461 1459 1456 1453 1452 1452 1452 1453 1453 1453 1451 1452 1453 1456 1457 1460 1459 1463 1466 1469 1472 1480 1485
1472 1471 1471 1471 1470 1470 1470 1470 1469 1467 1463 1461 1460 1458 1456 1453 1452 1449 1447 1445 1444 1443 1444 1445 1445 1444 1442 1443 1445 1446 1448 1449 1452 1456 1457 1459 1463 1471
1467 1466 1466 1466 1465 1465 1465 1464 1463 1462 1457 1453 1453 1451 1449 1447 1443 1440 1439 1437 1434 1434 1435 1435 1434 1433 1433 1432 1433 1435 1436 1437 1440 1442 1443 1448 1451 1459
1462 1461 1461 1461 1460 1460 1459 1459 1458 1457 1452 1443 1444 1442 1441 1439 1437 1434 1432 1432 1430 1430 1429 1428 1426 1424 1424 1423 1422 1423 1424 1426 1429 1433 1436 1440 1437 1441
1457 1456 1456 1456 1455 1455 1454 1452 1451 1449 1446 1439 1433 1435 1434 1432 1429 1429 1428 1426 1425 1424 1422 1420 1418 1417 1415 1413 1413 1414 1414 1415 1416 1416 1419 1423 1425 1427
1451 1451 1451 1450 1449 1449 1447 1445 1444 1441 1439 1434 1426 1424 1425 1425 1424 1422 1420 1421 1418 1417 1415 1414 1410 1407 1404 1403 1403 1403 1403 1401 1403 1405 1407 1411 1415 1417
1445 1445 1444 1443 1442 1441 1439 1437 1436 1434 1431 1427 1420 1416 1415 1418 1416 1416 1413 1412 1410 1409 1406 1403 1401 1398 1395 1393 1391 1392 1392 1392 1392 1393 1394 1395 1399 1400
1438 1438 1437 1436 1435 1434 1434 1433 1432 1428 1424 1420 1416 1414 1410 1411 1410 1408 1406 1405 1398 1400 1398 1392 1392 1388 1387 1385 1383 1382 1382 1381 1380 1381 1382 1382 1383 1391
1432 1431 1430 1429 1428 1426 1425 1423 1421 1420 1418 1417 1412 1410 1404 1404 1404 1399 1397 1395 1390 1389 1390 1382 1384 1377 1376 1374 1374 1372 1371 1370 1369 1369 1370 1371 1371 1378
1425 1424 1423 1421 1421 1419 1416 1413 1411 1409 1408 1406 1403 1399 1397 1395 1393 1390 1388 1385 1381 1378 1380 1374 1372 1367 1366 1362 1361 1360 1360 1360 1359 1358 1356 1356 1359 1361
1419 1418 1417 1414 1413 1411 1409 1406 1402 1400 1398 1396 1393 1391 1389 1387 1386 1381 1375 1374 1369 1366 1368 1367 1360 1358 1356 1351 1349 1349 1349 1349 1348 1345 1343 1344 1345 1349
1413 1411 1409 1407 1406 1405 1402 1398 1394 1390 1388 1384 1381 1379 1378 1375 1375 1374 1369 1362 1360 1356 1355 1358 1353 1353 1346 1343 1341 1341 1339 1340 1339 1335 1333 1331 1334 1339
1406 1403 1402 1400 1399 1397 1394 1390 1385 1382 1379 1375 1372 1369 1367 1365 1361 1359 1357 1355 1352 1346 1346 1348 1345 1344 1340 1335 1333 1334 1332 1331 1329 1326 1324 1324 1324 1326
1400 1397 1395 1393 1390 1387 1385 1381 1378 1375 1370 1367 1363 1360 1357 1355 1352 1349 1346 1343 1340 1338 1338 1338 1334 1334 1331 1327 1323 1323 1323 1322 1321 1319 1317 1316 1316 1318
1395 1391 1388 1384 1381 1378 1376 1372 1370 1365 1362 1359 1355 1352 1350 1347 1342 1339 1336 1333 1330 1328 1328 1326 1325 1323 1322 1318 1315 1314 1315 1314 1313 1312 1310 1309 1308 1308
1388 1383 1380 1377 1374 1370 1366 1363 1360 1358 1355 1353 1350 1346 1343 1339 1335 1332 1328 1325 1322 1318 1317 1316 1315 1314 1312 1310 1309 1306 1306 1307 1306 1305 1304 1302 1301 1300
1382 1376 1373 1369 1365 1362 1359 1357 1354 1352 1350 1347 1344 1340 1337 1333 1329 1326 1322 1319 1316 1312 1308 1307 1307 1306 1304 1303 1301 1300 1298 1298 1299 1298 1297 1294 1293 1293
1375 1369 1366 1363 1360 1357 1354 1352 1350 1347 1345 1342 1339 1335 1332 1328 1323 1320 1317 1313 1309 1305 1303 1301 1300 1298 1296 1294 1294 1293 1293 1292 1292 1291 1289 1286 1282 1282
1369 1364 1361 1359 1356 1353 1351 1348 1345 1343 1340 1337 1333 1330 1326 1323 1319 1315 1311 1308 1303 1300 1297 1296 1294 1292 1289 1285 1286 1287 1286 1285 1284 1283 1281 1279 1275 1272
1365 1360 1357 1355 1352 1349 1347 1344 1341 1338 1334 1331 1328 1325 1321 1318 1314 1310 1306 1303 1299 1295 1291 1290 1288 1286 1283 1281 1279 1278 1280 1279 1278 1275 1274 1271 1268 1265
1360 1357 1354 1351 1348 1345 1342 1339 1336 1332 1329 1326 1323 1319 1316 1313 1309 1305 1301 1298 1295 1291 1286 1283 1282 1280 1276 1274 1271 1267 1268 1270 1270 1269 1267 1265 1261 1257
1356 1352 1348 1345 1342 1339 1336 1333 1329 1326 1323 1319 1316 1314 1310 1307 1303 1299 1296 1292 1289 1285 1281 1278 1275 1273 1270 1267 1263 1261 1259 1259 1261 1260 1260 1259 1257 1252
1351 1347 1343 1339 1336 1333 1330 1327 1323 1319 1316 1314 1311 1307 1304 1301 1298 1294 1290 1287 1283 1279 1275 1271 1269 1266 1263 1261 1258 1255 1253 1251 1250 1249 1248 1250 1249 1246
Wind_Speed
18 19 19 19 19 19 19 19 19 14 23 26 28 28 29 30 30 31 33 33 33 33 35 38 42 44 46 47 51 51 55 57 55 41 52 51 63 61
19 20 20 19 18 18 18 18 20 23 24 28 32 31 30 33 33 33 34 36 38 38 38 38 39 42 45 47 48 53 51 54 54 51 43 53 58 64
18 19 19 17 17 17 17 19 21 23 32 36 34 33 32 32 34 35 35 37 39 40 40 40 39 40 44 45 46 50 54 52 57 54 52 37 51 46
18 17 17 15 16 16 18 21 24 25 30 37 34 34 32 31 33 32 33 34 35 36 37 37 39 40 41 42 44 45 47 50 49 56 53 49 49 59
17 17 16 17 19 19 22 24 25 27 30 35 39 34 34 34 37 35 35 35 35 35 33 34 36 37 36 38 34 36 37 42 46 43 58 52 52 55
16 18 18 19 21 19 21 25 26 27 29 35 40 40 38 37 38 40 39 38 38 38 35 34 34 35 36 36 36 35 37 43 45 48 55 54 50 54
20 19 21 21 20 23 25 27 29 32 35 36 41 41 44 42 43 41 42 41 42 41 41 39 37 33 29 31 33 33 35 32 34 40 46 55 55 48
23 24 24 23 24 24 26 26 26 31 31 32 36 39 46 43 43 46 46 41 45 37 31 40 38 40 39 38 36 38 39 39 37 37 39 39 54 52
24 24 25 25 24 24 25 26 27 27 29 32 38 40 45 37 38 41 43 47 48 45 39 45 41 45 43 40 42 41 41 42 44 44 44 46 46 58
23 24 24 24 23 23 25 26 29 32 33 35 35 38 40 40 38 41 41 44 48 47 44 43 40 40 36 38 40 41 42 41 42 45 46 46 48 52
23 24 23 24 24 22 25 30 33 37 34 32 32 34 35 37 38 42 48 44 44 47 43 40 47 47 44 38 35 32 28 24 30 40 44 44 47 47
23 23 22 22 23 25 28 32 35 36 32 34 36 36 36 39 40 37 40 41 45 40 42 33 39 32 31 32 23 17 19 24 22 20 23 34 41 39
24 25 26 24 23 25 27 30 31 28 34 35 36 40 40 41 37 34 32 36 40 37 44 31 32 32 34 39 43 40 36 28 21 26 23 27 28 32
26 26 26 24 23 24 25 28 29 30 32 35 37 37 32 30 30 27 28 30 31 36 33 38 38 37 38 39 41 38 29 29 30 25 23 27 25 29
23 24 24 26 28 26 31 31 25 29 29 28 28 28 30 31 31 31 34 35 33 32 33 31 33 36 36 39 39 35 32 29 26 24 18 20 27 28
22 24 22 22 30 31 27 23 21 20 20 22 25 28 27 26 26 25 25 25 28 33 31 28 29 30 34 36 36 37 34 31 27 27 25 27 28 30
23 26 28 29 29 22 19 17 16 16 18 19 21 22 22 23 24 24 24 22 25 24 30 27 26 26 28 30 32 32 31 28 25 26 25 26 27 30
24 27 27 23 20 18 17 17 16 16 17 18 19 20 21 21 23 22 21 22 21 25 22 18 25 28 27 29 26 26 26 27 24 25 25 27 30 26
22 20 19 17 16 16 17 17 18 17 17 17 18 20 20 20 21 22 22 21 23 22 23 23 22 15 21 25 23 23 24 26 24 24 26 27 31 31
17 17 17 17 16 17 18 18 19 20 20 19 20 21 20 19 22 21 21 22 22 23 24 21 21 22 24 26 26 28 24 28 31 31 32 33 33 30
19 19 17 17 17 18 19 19 20 21 21 21 21 21 21 21 23 20 21 21 21 23 25 25 21 20 23 24 28 32 34 31 28 25 26 27 29 30
21 21 20 19 20 20 20 21 23 22 21 21 21 22 23 23 25 25 21 24 24 25 26 25 24 22 22 22 29 32 34 32 27 26 29 31 27 25
22 23 23 22 22 22 22 23 23 24 22 22 23 24 25 26 25 26 26 25 27 28 27 27 28 27 26 24 25 29 29 30 29 28 28 27 33 33
Wind_Direction
281 282 282 281 278 278 277 278 282 289 298 308 314 319 319 317 319 317 312 307 300 291 282 277 278 279 274 270 266 267 262 260 252 243 226 228 238 241
279 280 279 277 276 275 276 278 280 282 275 298 307 311 315 315 313 311 311 307 300 296 292 285 278 274 275 271 267 264 266 261 259 253 242 225 228 237
278 280 278 277 274 273 278 282 284 287 284 296 300 309 311 315 316 312 309 308 301 293 290 287 283 275 271 273 266 263 261 264 258 259 254 244 222 231
282 277 275 278 275 274 280 285 287 288 289 295 303 307 308 312 316 314 310 308 307 299 296 289 282 278 273 270 268 263 263 261 263 256 258 252 227 227
278 274 274 280 279 281 286 287 285 288 287 293 301 306 309 310 309 307 307 306 305 308 306 294 284 278 274 268 271 269 268 262 258 256 252 256 252 232
273 273 277 282 284 285 285 284 288 290 295 297 299 303 305 309 302 300 301 301 302 300 296 295 293 285 275 267 265 267 266 258 258 253 253 251 256 252
276 275 280 284 285 289 291 292 297 293 292 293 295 301 300 301 299 301 296 300 300 298 295 290 291 286 278 260 254 253 256 263 262 259 255 252 251 261
285 288 287 284 281 275 273 273 276 281 289 293 294 288 292 292 295 294 290 286 286 295 289 294 290 285 275 265 262 257 251 258 264 259 249 251 245 253
282 284 284 283 284 285 281 278 278 278 277 278 277 279 286 291 292 290 280 280 285 292 289 287 289 284 279 273 269 268 264 262 261 260 256 247 243 239
284 285 283 284 279 284 287 287 290 290 289 288 281 284 288 290 288 286 287 282 281 281 279 273 287 287 290 286 279 273 268 269 266 263 258 255 244 238
286 286 282 287 282 283 286 286 288 291 291 289 283 281 281 281 281 284 274 271 265 271 275 270 283 285 289 290 288 278 269 271 275 266 260 256 247 241
295 292 287 290 280 284 283 289 290 290 292 293 292 290 284 284 283 278 271 269 261 267 268 262 276 277 276 289 288 254 242 250 270 264 257 260 250 244
296 297 298 293 287 284 285 283 286 295 293 288 287 284 287 288 287 285 278 266 263 258 266 261 267 269 266 273 277 272 275 283 272 267 272 246 234 250
294 296 298 297 289 288 287 287 290 291 281 283 286 289 291 287 288 285 284 282 273 269 276 272 266 269 271 272 277 280 275 272 287 281 278 255 243 236
295 297 293 292 293 291 294 296 289 278 282 287 289 289 288 293 294 288 280 279 282 281 281 275 269 268 271 271 272 276 279 280 280 285 290 276 261 248
306 302 296 292 298 300 297 292 287 286 290 289 287 289 294 297 298 295 294 285 287 282 278 276 272 264 267 270 273 275 280 274 278 280 288 286 278 265
307 302 299 299 303 302 300 297 295 296 295 296 297 300 302 304 302 303 297 299 283 289 282 281 277 273 271 275 268 272 278 276 275 286 292 290 278 273
303 296 296 301 302 304 306 306 305 306 305 304 303 304 306 307 309 311 306 305 295 284 283 289 282 278 267 270 267 266 267 270 282 289 288 285 286 277
313 308 302 305 306 307 306 308 310 311 311 309 311 313 311 309 310 309 311 311 307 301 292 285 279 280 272 264 277 266 272 278 290 283 279 278 289 289
320 316 311 306 305 305 308 307 306 307 309 309 315 318 311 312 317 314 311 308 309 309 307 300 291 285 280 278 279 270 263 270 275 278 279 286 288 289
322 318 312 307 304 304 306 307 309 309 308 306 307 318 320 312 322 315 310 309 305 302 303 304 303 295 285 278 274 274 273 275 274 272 277 287 290 293
323 318 314 310 305 303 303 305 307 308 306 304 305 313 318 317 314 324 314 311 309 306 305 307 309 304 295 283 277 277 279 279 274 268 263 261 270 272
322 319 316 312 309 306 303 301 304 308 308 308 306 308 310 312 312 314 316 309 309 304 300 304 309 303 292 287 283 282 282 283 285 283 270 260 257 263